Location: ???? ??
(36.0534°N, 43.5630°E)
Time: 23:21:38
(UTC+00:00)

Cosmos 405 Rocket - Pass Details

Date: 18 September 2019
Orbit: 491 x 554 km, 81.3° (Epoch: 14 October)

Event Time Altitude Azimuth Distance (km) Brightness Sun altitude
Exits shadow 16:16:29 15° 56° (NE) 1,379 4.5 -14.3°
Drops below altitude 10° 16:17:35 10° 42° (NE) 1,688 5.0 -14.5°
Sets 16:20:04 0° 25° (NNE) 2,578 6.1 -15.0°
